Time,TemperatureF,DewpointF,PressureIn,WindDirection,WindDirectionDegrees,WindSpeedMPH,WindSpeedGustMPH,Humidity,HourlyPrecipIn,Conditions,Clouds,dailyrainin,SoftwareType,DateUTC
2013-01-14 00:00:00,76.0,70.1,30.25,ESE,112,6.0,13.0,82,0.00,,,-99.99,Weather View 32 v70,2013-01-14 05:00:00,
2013-01-14 00:10:00,76.0,69.7,30.25,ESE,112,10.0,13.0,81,0.00,,,-99.99,Weather View 32 v70,2013-01-14 05:10:00,
2013-01-14 00:20:00,77.0,70.7,30.25,East,90,6.0,13.0,81,0.00,,,-99.99,Weather View 32 v70,2013-01-14 05:20:00,
2013-01-14 00:30:00,77.0,71.4,30.24,ESE,112,5.0,13.0,83,0.00,,,-99.99,Weather View 32 v70,2013-01-14 05:30:00,
2013-01-14 00:40:00,77.0,71.1,30.24,ESE,112,3.0,13.0,82,0.00,,,-99.99,Weather View 32 v70,2013-01-14 05:40:00,
2013-01-14 00:50:00,77.0,71.4,30.24,East,90,6.0,13.0,83,0.00,,,-99.99,Weather View 32 v70,2013-01-14 05:50:00,
2013-01-14 01:00:00,77.0,71.4,30.24,ESE,112,5.0,13.0,83,0.00,,,-99.99,Weather View 32 v70,2013-01-14 06:00:00,
2013-01-14 01:10:00,77.0,71.8,30.23,ESE,112,2.0,12.0,84,0.00,,,-99.99,Weather View 32 v70,2013-01-14 06:10:00,
2013-01-14 01:20:00,77.0,72.1,30.23,East,90,3.0,12.0,85,0.00,,,-99.99,Weather View 32 v70,2013-01-14 06:20:00,
2013-01-14 01:30:00,78.0,72.4,30.22,ESE,112,4.0,11.0,83,0.00,,,-99.99,Weather View 32 v70,2013-01-14 06:30:00,
2013-01-14 01:40:00,78.0,72.0,30.20,ESE,112,3.0,10.0,82,0.00,,,-99.99,Weather View 32 v70,2013-01-14 06:40:00,
2013-01-14 01:50:00,78.0,72.4,30.21,ESE,112,9.0,12.0,83,0.00,,,-99.99,Weather View 32 v70,2013-01-14 06:50:00,
2013-01-14 02:00:00,78.0,72.7,30.21,ESE,112,6.0,12.0,84,0.00,,,-99.99,Weather View 32 v70,2013-01-14 07:00:00,
2013-01-14 02:20:00,78.0,72.4,30.18,ESE,112,6.0,12.0,83,0.00,,,-99.99,Weather View 32 v70,2013-01-14 07:20:00,
2013-01-14 02:30:00,77.0,72.5,30.19,East,90,8.0,12.0,86,0.00,,,-99.99,Weather View 32 v70,2013-01-14 07:30:00,
2013-01-14 02:40:00,77.0,72.8,30.18,ESE,112,4.0,12.0,87,0.00,,,-99.99,Weather View 32 v70,2013-01-14 07:40:00,
2013-01-14 02:50:00,77.0,71.4,30.18,ESE,112,7.0,12.0,83,0.00,,,-99.99,Weather View 32 v70,2013-01-14 07:50:00,
2013-01-14 03:00:00,77.0,70.7,30.18,ESE,112,5.0,12.0,81,0.00,,,-99.99,Weather View 32 v70,2013-01-14 08:00:00,
2013-01-14 03:10:00,78.0,71.3,30.17,ESE,112,4.0,12.0,80,0.00,,,-99.99,Weather View 32 v70,2013-01-14 08:10:00,
2013-01-14 03:20:00,78.0,70.9,30.16,ESE,112,6.0,12.0,79,0.00,,,-99.99,Weather View 32 v70,2013-01-14 08:20:00,
2013-01-14 03:30:00,77.0,71.1,30.16,ESE,112,8.0,12.0,82,0.00,,,-99.99,Weather View 32 v70,2013-01-14 08:30:00,
2013-01-14 03:40:00,77.0,70.3,30.16,ESE,112,6.0,12.0,80,0.00,,,-99.99,Weather View 32 v70,2013-01-14 08:40:00,
2013-01-14 03:50:00,78.0,71.3,30.16,East,90,6.0,12.0,80,0.00,,,-99.99,Weather View 32 v70,2013-01-14 08:50:00,
2013-01-14 04:10:00,78.0,70.9,30.15,East,90,3.0,12.0,79,0.00,,,-99.99,Weather View 32 v70,2013-01-14 09:10:00,
2013-01-14 04:20:00,78.0,72.0,30.15,East,90,2.0,12.0,82,0.00,,,-99.99,Weather View 32 v70,2013-01-14 09:20:00,
2013-01-14 04:30:00,77.0,70.7,30.15,ESE,112,7.0,12.0,81,0.00,,,-99.99,Weather View 32 v70,2013-01-14 09:30:00,
2013-01-14 04:50:00,77.0,70.3,30.15,ESE,112,10.0,13.0,80,0.00,,,-99.99,Weather View 32 v70,2013-01-14 09:50:00,
2013-01-14 05:00:00,77.0,70.0,30.16,ESE,112,7.0,13.0,79,0.00,,,-99.99,Weather View 32 v70,2013-01-14 10:00:00,
2013-01-14 05:20:00,77.0,70.7,30.16,ESE,112,7.0,13.0,81,0.00,,,-99.99,Weather View 32 v70,2013-01-14 10:20:00,
2013-01-14 06:00:00,77.0,71.4,30.16,ESE,112,6.0,11.0,83,0.00,,,-99.99,Weather View 32 v70,2013-01-14 11:00:00,
2013-01-14 06:50:00,75.0,71.5,30.16,East,90,7.0,12.0,89,0.00,,,-99.99,Weather View 32 v70,2013-01-14 11:50:00,
2013-01-14 07:20:00,75.0,71.5,30.16,ESE,112,4.0,12.0,89,0.00,,,-99.99,Weather View 32 v70,2013-01-14 12:20:00,
2013-01-14 07:40:00,75.0,71.2,30.17,ESE,112,0.0,10.0,88,0.00,,,-99.99,Weather View 32 v70,2013-01-14 12:40:00,
2013-01-14 08:10:00,75.0,71.5,30.17,ESE,112,0.0,7.0,89,0.00,,,-99.99,Weather View 32 v70,2013-01-14 13:10:00,
2013-01-14 08:30:00,75.0,72.2,30.18,East,90,2.0,7.0,91,0.00,,,-99.99,Weather View 32 v70,2013-01-14 13:30:00,
2013-01-14 10:18:00,75.0,66.5,30.24,East,90,16.0,19.0,75,0.00,,,-99.99,Weather View 32 v70,2013-01-14 15:18:00,
2013-01-14 10:28:00,74.0,64.8,30.24,East,90,13.0,19.0,73,0.00,,,-99.99,Weather View 32 v70,2013-01-14 15:28:00,
2013-01-14 10:38:00,75.0,64.5,30.23,East,90,10.0,20.0,70,0.00,,,-99.99,Weather View 32 v70,2013-01-14 15:38:00,
2013-01-14 10:48:00,75.0,65.7,30.23,East,90,12.0,20.0,73,0.00,,,-99.99,Weather View 32 v70,2013-01-14 15:48:00,
2013-01-14 11:48:00,75.0,66.5,30.21,East,90,17.0,20.0,75,0.00,,,-99.99,Weather View 32 v70,2013-01-14 16:48:00,
2013-01-14 11:58:00,75.0,66.5,30.20,East,90,16.0,20.0,75,0.00,,,-99.99,Weather View 32 v70,2013-01-14 16:58:00,
2013-01-14 12:18:00,75.0,66.5,30.20,East,90,9.0,19.0,75,0.00,,,-99.99,Weather View 32 v70,2013-01-14 17:18:00,
2013-01-14 12:28:00,75.0,66.5,30.20,East,90,11.0,19.0,75,0.00,,,-99.99,Weather View 32 v70,2013-01-14 17:28:00,
2013-01-14 12:38:00,75.0,66.5,30.19,East,90,14.0,19.0,75,0.00,,,-99.99,Weather View 32 v70,2013-01-14 17:38:00,
2013-01-14 12:48:00,75.0,65.7,30.19,East,90,16.0,19.0,73,0.00,,,-99.99,Weather View 32 v70,2013-01-14 17:48:00,
2013-01-14 12:58:00,75.0,66.9,30.19,East,90,13.0,19.0,76,0.00,,,-99.99,Weather View 32 v70,2013-01-14 17:58:00,
2013-01-14 13:18:00,75.0,65.3,30.18,East,90,14.0,19.0,72,0.00,,,-99.99,Weather View 32 v70,2013-01-14 18:18:00,
2013-01-14 13:48:00,76.0,67.9,30.18,East,90,15.0,18.0,76,0.00,,,-99.99,Weather View 32 v70,2013-01-14 18:48:00,
2013-01-14 13:58:00,75.0,65.7,30.17,East,90,16.0,18.0,73,0.00,,,-99.99,Weather View 32 v70,2013-01-14 18:58:00,
2013-01-14 14:00:00,74.0,70.2,30.17,ESE,112,3.0,11.0,88,0.00,,,-99.99,Weather View 32 v70,2013-01-14 19:00:00,
2013-01-14 14:08:00,75.0,66.5,30.18,East,90,11.0,18.0,75,0.00,,,-99.99,Weather View 32 v70,2013-01-14 19:08:00,
2013-01-14 14:10:00,74.0,70.2,30.16,ESE,112,6.0,11.0,88,0.00,,,-99.99,Weather View 32 v70,2013-01-14 19:10:00,
2013-01-14 14:18:00,75.0,66.5,30.18,ENE,67,13.0,18.0,75,0.00,,,-99.99,Weather View 32 v70,2013-01-14 19:18:00,
2013-01-14 14:20:00,74.0,70.2,30.16,ESE,112,2.0,11.0,88,0.00,,,-99.99,Weather View 32 v70,2013-01-14 19:20:00,
2013-01-14 14:30:00,74.0,70.2,30.16,East,90,5.0,10.0,88,0.00,,,-99.99,Weather View 32 v70,2013-01-14 19:30:00,
2013-01-14 14:40:00,74.0,70.2,30.16,ESE,112,7.0,10.0,88,0.00,,,-99.99,Weather View 32 v70,2013-01-14 19:40:00,
2013-01-14 14:50:00,74.0,70.5,30.16,ESE,112,0.0,10.0,89,0.00,,,-99.99,Weather View 32 v70,2013-01-14 19:50:00,
2013-01-14 14:58:00,75.0,67.3,30.18,East,90,11.0,17.0,77,0.00,,,-99.99,Weather View 32 v70,2013-01-14 19:58:00,
2013-01-14 15:00:00,74.0,70.2,30.16,ESE,112,6.0,10.0,88,0.00,,,-99.99,Weather View 32 v70,2013-01-14 20:00:00,
2013-01-14 15:08:00,75.0,66.5,30.18,East,90,9.0,17.0,75,0.00,,,-99.99,Weather View 32 v70,2013-01-14 20:08:00,
2013-01-14 15:10:00,74.0,69.9,30.16,ESE,112,3.0,12.0,87,0.00,,,-99.99,Weather View 32 v70,2013-01-14 20:10:00,
2013-01-14 15:18:00,75.0,66.9,30.19,East,90,12.0,17.0,76,0.00,,,-99.99,Weather View 32 v70,2013-01-14 20:18:00,
2013-01-14 15:20:00,74.0,69.5,30.16,ESE,112,5.0,12.0,86,0.00,,,-99.99,Weather View 32 v70,2013-01-14 20:20:00,
2013-01-14 15:28:00,75.0,67.3,30.19,ENE,67,12.0,17.0,77,0.00,,,-99.99,Weather View 32 v70,2013-01-14 20:28:00,
2013-01-14 15:30:00,74.0,69.5,30.15,ESE,112,2.0,12.0,86,0.00,,,-99.99,Weather View 32 v70,2013-01-14 20:30:00,
2013-01-14 15:40:00,74.0,69.5,30.15,ESE,112,4.0,12.0,86,0.00,,,-99.99,Weather View 32 v70,2013-01-14 20:40:00,
2013-01-14 15:48:00,75.0,67.3,30.20,ENE,67,14.0,17.0,77,0.00,,,-99.99,Weather View 32 v70,2013-01-14 20:48:00,
2013-01-14 15:50:00,74.0,69.2,30.15,ESE,112,1.0,12.0,85,0.00,,,-99.99,Weather View 32 v70,2013-01-14 20:50:00,
2013-01-14 16:00:00,74.0,69.5,30.15,East,90,0.0,12.0,86,0.00,,,-99.99,Weather View 32 v70,2013-01-14 21:00:00,
2013-01-14 16:08:00,75.0,66.9,30.20,ENE,67,12.0,16.0,76,0.00,,,-99.99,Weather View 32 v70,2013-01-14 21:08:00,
2013-01-14 16:10:00,74.0,69.5,30.15,ESE,112,1.0,12.0,86,0.00,,,-99.99,Weather View 32 v70,2013-01-14 21:10:00,
2013-01-14 16:18:00,75.0,66.9,30.20,ENE,67,15.0,17.0,76,0.00,,,-99.99,Weather View 32 v70,2013-01-14 21:18:00,
2013-01-14 16:20:00,74.0,69.5,30.15,ESE,112,3.0,11.0,86,0.00,,,-99.99,Weather View 32 v70,2013-01-14 21:20:00,
2013-01-14 16:28:00,75.0,67.6,30.20,ENE,67,10.0,17.0,78,0.00,,,-99.99,Weather View 32 v70,2013-01-14 21:28:00,
2013-01-14 16:30:00,74.0,69.5,30.15,ESE,112,0.0,9.0,86,0.00,,,-99.99,Weather View 32 v70,2013-01-14 21:30:00,
2013-01-14 16:40:00,74.0,69.2,30.15,ESE,112,1.0,9.0,85,0.00,,,-99.99,Weather View 32 v70,2013-01-14 21:40:00,
2013-01-14 16:48:00,75.0,67.6,30.20,East,90,15.0,17.0,78,0.00,,,-99.99,Weather View 32 v70,2013-01-14 21:48:00,
2013-01-14 16:50:00,74.0,69.5,30.14,ESE,112,1.0,9.0,86,0.00,,,-99.99,Weather View 32 v70,2013-01-14 21:50:00,
2013-01-14 16:58:00,75.0,67.3,30.20,ENE,67,14.0,17.0,77,0.00,,,-99.99,Weather View 32 v70,2013-01-14 21:58:00,
2013-01-14 17:00:00,74.0,69.5,30.14,ESE,112,4.0,10.0,86,0.00,,,-99.99,Weather View 32 v70,2013-01-14 22:00:00,
2013-01-14 17:10:00,74.0,69.5,30.14,ESE,112,2.0,10.0,86,0.00,,,-99.99,Weather View 32 v70,2013-01-14 22:10:00,
2013-01-14 17:18:00,75.0,68.4,30.20,ENE,67,14.0,16.0,80,0.00,,,-99.99,Weather View 32 v70,2013-01-14 22:18:00,
2013-01-14 17:20:00,74.0,69.5,30.14,ESE,112,2.0,10.0,86,0.00,,,-99.99,Weather View 32 v70,2013-01-14 22:20:00,
2013-01-14 17:28:00,75.0,68.4,30.21,ENE,67,11.0,17.0,80,0.00,,,-99.99,Weather View 32 v70,2013-01-14 22:28:00,
2013-01-14 17:30:00,74.0,69.2,30.14,East,90,7.0,10.0,85,0.00,,,-99.99,Weather View 32 v70,2013-01-14 22:30:00,
2013-01-14 17:38:00,75.0,70.5,30.20,ENE,67,14.0,17.0,86,0.00,,,-99.99,Weather View 32 v70,2013-01-14 22:38:00,
2013-01-14 17:40:00,74.0,69.5,30.14,ESE,112,1.0,10.0,86,0.00,,,-99.99,Weather View 32 v70,2013-01-14 22:40:00,
2013-01-14 17:48:00,74.0,68.8,30.21,ENE,67,13.0,18.0,84,0.00,,,-99.99,Weather View 32 v70,2013-01-14 22:48:00,
2013-01-14 17:50:00,74.0,69.2,30.14,East,90,6.0,10.0,85,0.00,,,-99.99,Weather View 32 v70,2013-01-14 22:50:00,
2013-01-14 17:58:00,74.0,68.5,30.21,ENE,67,15.0,18.0,83,0.00,,,-99.99,Weather View 32 v70,2013-01-14 22:58:00,
2013-01-14 18:00:00,74.0,68.8,30.14,East,90,3.0,10.0,84,0.00,,,-99.99,Weather View 32 v70,2013-01-14 23:00:00,
2013-01-14 18:10:00,74.0,68.8,30.14,East,90,1.0,10.0,84,0.00,,,-99.99,Weather View 32 v70,2013-01-14 23:10:00,
2013-01-14 18:18:00,74.0,67.8,30.21,ENE,67,12.0,18.0,81,0.00,,,-99.99,Weather View 32 v70,2013-01-14 23:18:00,
2013-01-14 18:20:00,74.0,69.2,30.14,ESE,112,1.0,10.0,85,0.00,,,-99.99,Weather View 32 v70,2013-01-14 23:20:00,
2013-01-14 18:28:00,75.0,69.5,30.22,ENE,67,13.0,18.0,83,0.00,,,-99.99,Weather View 32 v70,2013-01-14 23:28:00,
2013-01-14 18:30:00,74.0,68.8,30.14,ESE,112,4.0,10.0,84,0.00,,,-99.99,Weather View 32 v70,2013-01-14 23:30:00,
2013-01-14 18:40:00,74.0,68.8,30.14,ESE,112,4.0,10.0,84,0.00,,,-99.99,Weather View 32 v70,2013-01-14 23:40:00,
2013-01-14 18:50:00,74.0,68.8,30.14,ESE,112,2.0,10.0,84,0.00,,,-99.99,Weather View 32 v70,2013-01-14 23:50:00,
2013-01-14 19:00:00,74.0,69.2,30.14,ESE,112,1.0,10.0,85,0.00,,,-99.99,Weather View 32 v70,2013-01-15 00:00:00,
2013-01-14 19:10:00,74.0,69.2,30.14,ESE,112,0.0,10.0,85,0.00,,,-99.99,Weather View 32 v70,2013-01-15 00:10:00,
2013-01-14 19:18:00,74.0,69.9,30.22,ENE,67,13.0,20.0,87,0.00,,,-99.99,Weather View 32 v70,2013-01-15 00:18:00,
2013-01-14 19:20:00,74.0,69.5,30.14,East,90,1.0,10.0,86,0.00,,,-99.99,Weather View 32 v70,2013-01-15 00:20:00,
2013-01-14 19:28:00,75.0,68.7,30.21,ENE,67,17.0,22.0,81,0.00,,,-99.99,Weather View 32 v70,2013-01-15 00:28:00,
2013-01-14 19:30:00,74.0,69.5,30.14,East,90,2.0,10.0,86,0.00,,,-99.99,Weather View 32 v70,2013-01-15 00:30:00,
2013-01-14 19:40:00,74.0,69.5,30.14,ESE,112,0.0,10.0,86,0.00,,,-99.99,Weather View 32 v70,2013-01-15 00:40:00,
2013-01-14 19:48:00,75.0,69.8,30.22,ENE,67,17.0,22.0,84,0.00,,,-99.99,Weather View 32 v70,2013-01-15 00:48:00,
2013-01-14 19:50:00,74.0,69.5,30.14,ESE,112,2.0,10.0,86,0.00,,,-99.99,Weather View 32 v70,2013-01-15 00:50:00,
2013-01-14 19:58:00,74.0,68.1,30.22,ENE,67,19.0,22.0,82,0.00,,,-99.99,Weather View 32 v70,2013-01-15 00:58:00,
2013-01-14 20:00:00,74.0,69.5,30.14,ESE,112,4.0,9.0,86,0.00,,,-99.99,Weather View 32 v70,2013-01-15 01:00:00,
2013-01-14 20:10:00,74.0,69.5,30.15,East,90,4.0,9.0,86,0.00,,,-99.99,Weather View 32 v70,2013-01-15 01:10:00,
2013-01-14 20:20:00,74.0,69.5,30.15,ESE,112,1.0,9.0,86,0.00,,,-99.99,Weather View 32 v70,2013-01-15 01:20:00,
2013-01-14 20:28:00,75.0,70.2,30.22,ENE,67,17.0,21.0,85,0.00,,,-99.99,Weather View 32 v70,2013-01-15 01:28:00,
2013-01-14 20:30:00,74.0,69.5,30.16,East,90,8.0,10.0,86,0.00,,,-99.99,Weather View 32 v70,2013-01-15 01:30:00,
2013-01-14 20:38:00,75.0,69.8,30.21,East,90,10.0,21.0,84,0.00,,,-99.99,Weather View 32 v70,2013-01-15 01:38:00,
2013-01-14 20:40:00,74.0,69.2,30.16,East,90,4.0,10.0,85,0.00,,,-99.99,Weather View 32 v70,2013-01-15 01:40:00,
2013-01-14 20:48:00,75.0,69.8,30.20,East,90,13.0,20.0,84,0.00,,,-99.99,Weather View 32 v70,2013-01-15 01:48:00,
2013-01-14 20:50:00,74.0,69.5,30.16,ESE,112,3.0,10.0,86,0.00,,,-99.99,Weather View 32 v70,2013-01-15 01:50:00,
2013-01-14 20:58:00,75.0,69.5,30.20,East,90,17.0,20.0,83,0.00,,,-99.99,Weather View 32 v70,2013-01-15 01:58:00,
2013-01-14 21:00:00,74.0,69.5,30.17,East,90,6.0,10.0,86,0.00,,,-99.99,Weather View 32 v70,2013-01-15 02:00:00,
2013-01-14 21:10:00,74.0,69.2,30.17,East,90,3.0,10.0,85,0.00,,,-99.99,Weather View 32 v70,2013-01-15 02:10:00,
2013-01-14 21:18:00,75.0,69.8,30.21,East,90,15.0,20.0,84,0.00,,,-99.99,Weather View 32 v70,2013-01-15 02:18:00,
2013-01-14 21:20:00,75.0,69.8,30.18,East,90,5.0,10.0,84,0.00,,,-99.99,Weather View 32 v70,2013-01-15 02:20:00,
2013-01-14 21:30:00,75.0,69.1,30.18,East,90,5.0,9.0,82,0.00,,,-99.99,Weather View 32 v70,2013-01-15 02:30:00,
2013-01-14 21:38:00,75.0,69.5,30.21,East,90,17.0,20.0,83,0.00,,,-99.99,Weather View 32 v70,2013-01-15 02:38:00,
2013-01-14 21:40:00,76.0,70.1,30.18,ESE,112,3.0,10.0,82,0.00,,,-99.99,Weather View 32 v70,2013-01-15 02:40:00,
2013-01-14 21:50:00,76.0,69.7,30.18,ESE,112,4.0,10.0,81,0.00,,,-99.99,Weather View 32 v70,2013-01-15 02:50:00,
2013-01-14 22:00:00,76.0,69.7,30.19,ESE,112,4.0,10.0,81,0.00,,,-99.99,Weather View 32 v70,2013-01-15 03:00:00,
2013-01-14 22:10:00,76.0,69.7,30.20,East,90,4.0,10.0,81,0.00,,,-99.99,Weather View 32 v70,2013-01-15 03:10:00,
2013-01-14 22:20:00,76.0,69.7,30.20,East,90,5.0,10.0,81,0.00,,,-99.99,Weather View 32 v70,2013-01-15 03:20:00,
2013-01-14 22:28:00,74.0,68.8,30.21,East,90,16.0,24.0,84,0.00,,,-99.99,Weather View 32 v70,2013-01-15 03:28:00,
2013-01-14 22:30:00,76.0,69.7,30.21,East,90,7.0,10.0,81,0.00,,,-99.99,Weather View 32 v70,2013-01-15 03:30:00,
2013-01-14 22:38:00,74.0,68.5,30.21,East,90,14.0,24.0,83,0.00,,,-99.99,Weather View 32 v70,2013-01-15 03:38:00,
2013-01-14 22:40:00,76.0,69.0,30.21,East,90,7.0,10.0,79,0.00,,,-99.99,Weather View 32 v70,2013-01-15 03:40:00,
2013-01-14 22:48:00,74.0,68.1,30.20,East,90,13.0,24.0,82,0.00,,,-99.99,Weather View 32 v70,2013-01-15 03:48:00,
2013-01-14 22:50:00,77.0,70.7,30.20,ESE,112,3.0,10.0,81,0.00,,,-99.99,Weather View 32 v70,2013-01-15 03:50:00,
2013-01-14 22:58:00,74.0,68.1,30.20,East,90,11.0,25.0,82,0.00,,,-99.99,Weather View 32 v70,2013-01-15 03:58:00,
2013-01-14 23:00:00,76.0,69.4,30.21,East,90,10.0,10.0,80,0.00,,,-99.99,Weather View 32 v70,2013-01-15 04:00:00,
2013-01-14 23:10:00,76.0,69.7,30.21,East,90,10.0,11.0,81,0.00,,,-99.99,Weather View 32 v70,2013-01-15 04:10:00,
2013-01-14 23:18:00,74.0,67.8,30.20,East,90,15.0,25.0,81,0.00,,,-99.99,Weather View 32 v70,2013-01-15 04:18:00,
2013-01-14 23:20:00,77.0,70.7,30.21,East,90,3.0,11.0,81,0.00,,,-99.99,Weather View 32 v70,2013-01-15 04:20:00,
2013-01-14 23:28:00,74.0,68.1,30.20,East,90,16.0,25.0,82,0.00,,,-99.99,Weather View 32 v70,2013-01-15 04:28:00,
2013-01-14 23:30:00,77.0,70.3,30.21,ESE,112,6.0,11.0,80,0.00,,,-99.99,Weather View 32 v70,2013-01-15 04:30:00,
2013-01-14 23:38:00,74.0,68.1,30.20,East,90,13.0,25.0,82,0.00,,,-99.99,Weather View 32 v70,2013-01-15 04:38:00,
2013-01-14 23:40:00,77.0,70.0,30.21,East,90,8.0,12.0,79,0.00,,,-99.99,Weather View 32 v70,2013-01-15 04:40:00,
2013-01-14 23:48:00,74.0,67.4,30.20,East,90,20.0,25.0,80,0.00,,,-99.99,Weather View 32 v70,2013-01-15 04:48:00,
2013-01-14 23:50:00,77.0,69.6,30.22,East,90,6.0,12.0,78,0.00,,,-99.99,Weather View 32 v70,2013-01-15 04:50:00,
2013-01-14 23:58:00,74.0,68.1,30.20,East,90,19.0,22.0,82,0.00,,,-99.99,Weather View 32 v70,2013-01-15 04:58:00,